Date String (YYYY-MM-DD hh:mm:ss) UTC,Instrument flags,Ambient pressure (hPa),Sample flow (lpm),Bypass flow (lpm),Sample temperature (°C),Ambient temperature (°C),ASC tube jacket temperature (°C),LED temperature (°C),Box temperature (°C),Sample RH (%),Span deviation,Mass concentration (μg/m³),Mass concentration (μg/m³),Mass concentration (μg/m³)
DateTimeUTC,F1_M11,P_M11,Q1_M11,Q2_M11,T1_M11,T2_M11,T3_M11,T4_M11,T5_M11,U1_M11,ZSPAN_M11,X0_M11,X2_M11,X1_M11
2022-10-24 07:00:00,,0817.0,4.98,0.00,24.2,22.8,00.0,33.0,26.2,14.8,0000.0,0002.69,0001.70,0001.44
2022-10-24 07:01:00,,0817.0,5.00,0.00,24.2,22.9,00.0,33.0,26.2,14.4,0000.0,0002.69,0001.70,0001.43
2022-10-24 07:02:00,,0817.0,5.00,0.00,24.2,22.9,00.0,33.0,26.2,13.8,0000.0,0002.76,0001.75,0001.45
2022-10-24 07:03:00,,0817.0,5.00,0.00,24.2,22.9,00.0,33.0,26.2,13.7,0000.0,0002.76,0001.73,0001.46
2022-10-24 07:04:00,,0816.9,5.00,0.00,24.3,22.8,00.0,33.0,26.2,14.0,0000.0,0003.40,0001.72,0001.45
2022-10-24 07:05:00,,0816.9,5.00,0.00,24.3,22.8,00.0,33.0,26.2,14.6,0000.0,0003.38,0001.71,0001.45
2022-10-24 07:06:00,,0816.9,4.99,0.00,24.3,22.8,00.0,33.0,26.2,14.9,0000.0,0003.57,0001.76,0001.47
2022-10-24 07:07:00,,0816.9,5.01,0.00,24.3,22.8,00.0,33.0,26.2,15.3,0000.0,0003.47,0001.76,0001.48
2022-10-24 07:08:00,,0816.9,5.01,0.00,24.3,22.8,00.0,33.0,26.2,15.5,0000.0,0003.52,0001.80,0001.49
2022-10-24 07:09:00,,0817.2,5.00,0.00,24.3,22.8,00.0,33.0,26.2,16.0,0000.0,0003.62,0001.82,0001.52
2022-10-24 07:10:00,,0816.9,5.01,0.00,24.3,22.7,00.0,33.0,26.2,15.1,0000.0,0003.65,0001.83,0001.52
2022-10-24 07:11:00,,0816.9,5.00,0.00,24.2,22.7,00.0,33.0,26.2,14.8,0000.0,0003.71,0001.85,0001.50
2022-10-24 07:12:00,,0817.1,5.00,0.00,24.2,22.7,00.0,33.1,26.1,14.4,0000.0,0003.90,0001.90,0001.51
2022-10-24 07:13:00,,0817.4,5.00,0.00,24.2,22.7,00.0,33.1,26.1,13.7,0000.0,0004.18,0001.86,0001.50
2022-10-24 07:14:00,,0817.2,5.00,0.00,24.2,22.6,00.0,33.1,26.1,13.9,0000.0,0004.18,0001.84,0001.49
2022-10-24 07:15:00,,0816.8,5.00,0.00,24.2,22.6,00.0,33.1,26.1,14.1,0000.0,0003.64,0001.86,0001.50
2022-10-24 07:16:00,,0817.3,5.00,0.00,24.2,22.6,00.0,33.1,26.1,13.0,0000.0,0003.51,0001.88,0001.51
2022-10-24 07:17:00,,0817.5,5.00,0.00,24.2,22.6,00.0,33.1,26.1,12.7,0000.0,0003.32,0001.82,0001.49
2022-10-24 07:18:00,,0817.0,5.01,0.00,24.2,22.6,00.0,33.0,26.1,12.6,0000.0,0003.25,0001.80,0001.48
2022-10-24 07:19:00,,0816.9,5.00,0.00,24.2,22.6,00.0,33.0,26.1,12.7,0000.0,0003.14,0001.75,0001.46
2022-10-24 07:20:00,,0817.0,5.00,0.00,24.2,22.6,00.0,33.0,26.1,14.9,0000.0,0003.07,0001.73,0001.45
2022-10-24 07:21:00,,0816.9,5.00,0.00,24.2,22.6,00.0,33.0,26.0,16.0,0000.0,0003.95,0001.76,0001.46
2022-10-24 07:22:00,,0816.9,4.99,0.00,24.2,22.6,00.0,33.0,26.0,15.9,0000.0,0003.95,0001.76,0001.47
2022-10-24 07:23:00,,0816.9,5.00,0.00,24.2,22.6,00.0,33.0,26.1,15.2,0000.0,0003.83,0001.74,0001.47
2022-10-24 07:24:00,,0816.9,5.00,0.00,24.2,22.6,00.0,33.0,26.0,15.6,0000.0,0003.65,0001.80,0001.49
2022-10-24 07:25:00,,0816.9,5.00,0.00,24.2,22.5,00.0,33.0,26.0,16.2,0000.0,0004.18,0001.88,0001.50
2022-10-24 07:26:00,,0816.9,5.00,0.00,24.2,22.5,00.0,33.0,26.0,16.3,0000.0,0004.89,0001.92,0001.51
2022-10-24 07:27:00,,0816.9,5.00,0.00,24.2,22.5,00.0,33.0,26.0,16.7,0000.0,0005.13,0001.95,0001.53
2022-10-24 07:28:00,,0816.9,4.99,0.00,24.1,22.5,00.0,33.0,26.0,16.9,0000.0,0005.46,0002.04,0001.57
2022-10-24 07:29:00,,0816.9,5.00,0.00,24.1,22.5,00.0,33.0,25.9,16.1,0000.0,0006.10,0002.10,0001.59
2022-10-24 07:30:00,,0817.0,4.99,0.00,24.1,22.5,00.0,33.0,26.0,16.1,0000.0,0006.73,0002.17,0001.62
2022-10-24 07:31:00,,0816.9,5.00,0.00,24.1,22.5,00.0,33.0,26.0,16.4,0000.0,0006.84,0002.22,0001.63
2022-10-24 07:32:00,,0816.9,5.00,0.00,24.1,22.5,00.0,33.0,26.0,16.1,0000.0,0006.09,0002.23,0001.62
2022-10-24 07:33:00,,0817.0,5.02,0.00,24.1,22.5,00.0,33.0,26.0,15.8,0000.0,0006.05,0002.25,0001.62
2022-10-24 07:34:00,,0817.0,5.00,0.00,24.1,22.5,00.0,33.0,26.0,15.1,0000.0,0006.21,0002.28,0001.62
2022-10-24 07:35:00,,0817.0,5.00,0.00,24.1,22.5,00.0,33.0,25.9,14.7,0000.0,0006.18,0002.27,0001.63
2022-10-24 07:36:00,,0817.0,5.00,0.00,24.1,22.5,00.0,33.0,25.9,14.7,0000.0,0005.71,0002.22,0001.64
2022-10-24 07:37:00,,0817.0,4.99,0.00,24.1,22.5,00.0,33.0,26.0,13.4,0000.0,0005.01,0002.19,0001.65
2022-10-24 07:38:00,,0817.0,5.00,0.00,24.1,22.5,00.0,33.0,25.9,12.2,0000.0,0004.76,0002.16,0001.64
2022-10-24 07:39:00,,0817.0,4.99,0.00,24.1,22.5,00.0,33.0,26.0,11.7,0000.0,0004.72,0002.09,0001.63
2022-10-24 07:40:00,,0817.0,5.00,0.00,24.1,22.5,00.0,33.0,26.0,12.1,0000.0,0004.37,0002.06,0001.62
2022-10-24 07:41:00,,0817.0,5.00,0.00,24.1,22.5,00.0,33.0,26.0,12.2,0000.0,0003.80,0002.02,0001.61
2022-10-24 07:42:00,,0817.0,5.00,0.00,24.1,22.5,00.0,33.0,26.0,11.4,0000.0,0003.75,0002.01,0001.61
2022-10-24 07:43:00,,0817.0,5.00,0.00,24.1,22.5,00.0,33.0,25.9,11.1,0000.0,0003.66,0001.97,0001.61
2022-10-24 07:44:00,,0817.0,5.00,0.00,24.1,22.5,00.0,33.0,26.0,12.0,0000.0,0003.54,0001.93,0001.62
2022-10-24 07:45:00,,0817.0,5.00,0.00,24.1,22.5,00.0,33.0,26.0,11.5,0000.0,0003.85,0001.88,0001.61
2022-10-24 07:46:00,,0817.0,5.00,0.00,24.1,22.5,00.0,33.0,26.0,10.7,0000.0,0004.30,0001.83,0001.60
2022-10-24 07:47:00,,0817.0,5.00,0.00,24.1,22.5,00.0,33.0,25.9,10.1,0000.0,0004.32,0001.82,0001.59
2022-10-24 07:48:00,,0817.0,5.01,0.00,24.1,22.4,00.0,33.0,25.9,09.6,0000.0,0004.34,0001.82,0001.59
2022-10-24 07:49:00,,0817.1,5.00,0.00,24.1,22.4,00.0,33.0,25.9,09.3,0000.0,0005.15,0001.83,0001.58
2022-10-24 07:50:00,,0817.0,5.00,0.00,24.0,22.3,00.0,33.0,25.9,08.8,0000.0,0006.80,0001.87,0001.58
2022-10-24 07:51:00,,0817.0,5.00,0.00,24.0,22.3,00.0,32.9,25.9,08.7,0000.0,0006.49,0001.85,0001.59
2022-10-24 07:52:00,,0817.0,5.00,0.00,24.0,22.3,00.0,32.9,25.8,08.6,0000.0,0006.55,0001.87,0001.60
2022-10-24 07:53:00,,0817.0,5.00,0.00,24.0,22.2,00.0,32.9,25.7,08.8,0000.0,0006.51,0001.85,0001.62
2022-10-24 07:54:00,,0817.0,5.00,0.00,23.9,22.1,00.0,32.9,25.6,09.0,0000.0,0006.43,0001.83,0001.62
2022-10-24 07:55:00,,0817.0,5.00,0.00,23.9,22.1,00.0,32.9,25.6,08.9,0000.0,0009.60,0001.87,0001.63
2022-10-24 07:56:00,,0817.0,5.00,0.00,23.9,22.1,00.0,32.9,25.6,08.6,0000.0,0011.16,0001.89,0001.64
2022-10-24 07:57:00,,0817.0,5.00,0.00,23.9,22.1,00.0,32.9,25.6,08.9,0000.0,0011.14,0001.92,0001.65
2022-10-24 07:58:00,,0817.1,5.00,0.00,23.9,22.0,00.0,32.9,25.6,09.0,0000.0,0011.55,0001.94,0001.66
2022-10-24 07:59:00,,0817.1,4.99,0.00,23.9,22.0,00.0,32.8,25.6,08.9,0000.0,0011.52,0001.94,0001.68
